Temp
-17 -16 -16 -17 -17 -17 -17 -17 -17 -17 -17 -16 -16 -17 -17 -17 -16 -16 -17 -17 -17 -17 -17 -17 -17 -17 -17 -16 -16 -16 -16 -16 -16 -16 -16 -16 -16 -16 -16 -16 -16 -16
-16 -16 -17 -17 -17 -17 -17 -17 -17 -17 -17 -17 -17 -17 -17 -17 -17 -17 -17 -17 -17 -17 -17 -17 -17 -17 -17 -17 -17 -17 -17 -17 -17 -17 -17 -17 -16 -16 -16 -16 -16 -16
-16 -16 -17 -17 -17 -17 -18 -17 -17 -17 -17 -17 -17 -17 -17 -17 -17 -17 -17 -17 -17 -17 -17 -17 -17 -17 -17 -17 -17 -17 -17 -17 -17 -17 -17 -17 -17 -17 -17 -17 -17 -17
-16 -16 -17 -17 -17 -17 -18 -18 -18 -18 -17 -17 -17 -17 -17 -17 -17 -17 -17 -17 -17 -17 -17 -17 -17 -17 -17 -17 -17 -17 -17 -17 -17 -17 -17 -17 -17 -17 -17 -17 -17 -17
-17 -17 -17 -17 -17 -18 -18 -18 -18 -18 -18 -17 -17 -17 -17 -18 -18 -18 -17 -17 -17 -17 -17 -17 -17 -17 -17 -17 -17 -17 -17 -17 -17 -17 -17 -17 -17 -17 -17 -17 -17 -17
-17 -17 -17 -17 -18 -18 -18 -18 -18 -18 -18 -18 -18 -18 -18 -18 -18 -18 -18 -18 -18 -17 -17 -18 -18 -18 -18 -18 -18 -18 -18 -18 -18 -18 -18 -18 -18 -18 -18 -18 -18 -18
-17 -17 -17 -17 -18 -18 -18 -18 -18 -18 -18 -18 -18 -18 -18 -18 -18 -18 -18 -18 -18 -18 -18 -18 -18 -18 -18 -18 -18 -18 -18 -18 -18 -18 -18 -18 -18 -18 -18 -18 -18 -18
-17 -18 -18 -17 -17 -18 -18 -18 -18 -18 -18 -18 -18 -18 -18 -18 -18 -18 -18 -18 -18 -18 -18 -18 -18 -18 -18 -18 -18 -18 -18 -19 -19 -19 -18 -18 -18 -18 -18 -18 -18 -18
-18 -18 -18 -17 -18 -18 -18 -18 -18 -18 -18 -18 -18 -18 -18 -18 -18 -18 -18 -18 -18 -18 -18 -18 -18 -18 -18 -18 -18 -18 -18 -18 -19 -19 -19 -19 -19 -18 -18 -18 -18 -19
-18 -17 -17 -18 -18 -18 -18 -18 -18 -18 -18 -18 -18 -18 -18 -18 -18 -18 -18 -18 -18 -18 -18 -18 -19 -19 -18 -18 -18 -18 -19 -19 -19 -19 -19 -19 -19 -19 -19 -19 -19 -19
-17 -18 -18 -18 -18 -18 -18 -18 -18 -18 -18 -18 -18 -18 -18 -18 -18 -18 -18 -18 -18 -18 -18 -19 -19 -19 -19 -19 -19 -19 -19 -19 -19 -19 -19 -19 -18 -18 -18 -19 -19 -19
-17 -18 -18 -18 -18 -18 -18 -18 -18 -18 -18 -18 -18 -18 -18 -18 -18 -19 -19 -18 -18 -18 -19 -19 -19 -19 -19 -19 -19 -19 -19 -19 -19 -19 -19 -19 -19 -18 -18 -19 -19 -19
-18 -18 -18 -18 -18 -18 -18 -18 -18 -18 -18 -18 -18 -18 -18 -18 -19 -19 -19 -19 -19 -19 -19 -19 -19 -19 -19 -19 -19 -19 -19 -19 -19 -19 -19 -19 -19 -18 -19 -19 -19 -19
-18 -18 -18 -18 -18 -18 -18 -18 -18 -18 -18 -18 -18 -18 -18 -18 -18 -18 -19 -19 -19 -19 -19 -19 -19 -19 -19 -19 -19 -19 -19 -19 -19 -19 -19 -19 -19 -19 -19 -19 -19 -19
-18 -18 -18 -18 -18 -18 -18 -18 -18 -18 -18 -18 -18 -18 -18 -18 -18 -18 -18 -18 -19 -19 -19 -19 -19 -20 -20 -20 -20 -20 -19 -20 -20 -19 -19 -19 -19 -19 -19 -19 -19 -19
-18 -18 -18 -18 -18 -18 -18 -18 -18 -18 -18 -18 -18 -18 -18 -18 -18 -19 -18 -19 -19 -20 -20 -20 -20 -20 -20 -20 -20 -20 -20 -20 -20 -20 -20 -20 -19 -19 -19 -19 -19 -19
-18 -18 -18 -18 -18 -19 -19 -19 -19 -19 -19 -19 -19 -19 -19 -19 -19 -19 -19 -19 -19 -20 -20 -20 -20 -20 -20 -20 -20 -20 -20 -20 -20 -20 -20 -20 -20 -19 -19 -19 -19 -19
-19 -19 -19 -19 -19 -19 -19 -19 -19 -19 -19 -19 -19 -19 -19 -19 -19 -19 -20 -19 -20 -20 -20 -20 -20 -20 -20 -20 -20 -20 -20 -20 -20 -19 -19 -19 -20 -20 -20 -20 -20 -19
-19 -19 -19 -19 -19 -19 -19 -19 -19 -19 -19 -19 -19 -19 -19 -19 -19 -20 -20 -20 -20 -20 -20 -20 -20 -20 -20 -20 -20 -20 -19 -19 -19 -19 -19 -19 -19 -20 -20 -20 -20 -20
-19 -19 -19 -19 -19 -19 -19 -19 -19 -20 -20 -20 -19 -19 -19 -19 -20 -20 -20 -20 -20 -20 -20 -20 -20 -20 -20 -20 -20 -20 -20 -20 -20 -20 -20 -20 -20 -20 -20 -21 -21 -21
-19 -19 -19 -19 -20 -20 -20 -20 -20 -20 -20 -20 -20 -19 -19 -19 -19 -20 -20 -20 -20 -20 -20 -20 -20 -20 -20 -20 -20 -20 -20 -20 -20 -20 -20 -20 -20 -20 -20 -21 -21 -21
-20 -20 -20 -20 -20 -20 -20 -20 -20 -20 -20 -20 -20 -20 -20 -20 -20 -20 -20 -20 -20 -20 -20 -20 -21 -21 -21 -21 -21 -21 -21 -21 -21 -21 -21 -20 -20 -20 -20 -20 -21 -21
-20 -20 -20 -20 -20 -20 -20 -20 -20 -20 -20 -20 -20 -20 -20 -20 -20 -20 -20 -20 -21 -21 -21 -21 -21 -21 -21 -21 -21 -21 -21 -21 -21 -21 -21 -21 -21 -21 -21 -21 -21 -21
-21 -21 -21 -21 -21 -21 -21 -20 -20 -20 -20 -20 -20 -20 -20 -20 -20 -21 -21 -21 -21 -21 -21 -21 -21 -21 -21 -21 -21 -21 -21 -21 -21 -21 -21 -21 -21 -21 -21 -21 -21 -21
-21 -21 -21 -21 -21 -21 -21 -21 -21 -21 -21 -21 -21 -21 -21 -21 -21 -21 -21 -21 -21 -21 -21 -21 -21 -21 -21 -21 -21 -21 -21 -21 -21 -21 -21 -21 -21 -22 -22 -21 -21 -21
-21 -21 -21 -21 -21 -21 -21 -21 -21 -21 -21 -21 -21 -21 -21 -21 -21 -21 -21 -21 -21 -22 -22 -22 -22 -21 -21 -21 -21 -21 -21 -21 -21 -21 -21 -21 -22 -22 -22 -22 -22 -22
Height
5742 5743 5742 5741 5741 5741 5741 5741 5741 5742 5742 5742 5742 5742 5743 5743 5743 5743 5743 5744 5744 5745 5745 5745 5745 5746 5746 5746 5746 5746 5747 5747 5747 5746 5746 5746 5746 5746 5745 5745 5745 5745
5740 5740 5739 5739 5739 5739 5738 5739 5739 5740 5740 5740 5741 5741 5741 5741 5742 5742 5742 5742 5742 5743 5743 5744 5744 5744 5745 5745 5745 5745 5745 5746 5746 5745 5745 5745 5745 5745 5744 5744 5744 5744
5737 5737 5736 5737 5738 5737 5736 5737 5737 5738 5739 5739 5739 5740 5740 5740 5740 5740 5740 5740 5741 5741 5742 5742 5742 5743 5743 5743 5744 5744 5744 5745 5745 5745 5745 5744 5744 5744 5744 5743 5743 5743
5733 5733 5733 5734 5735 5734 5734 5735 5735 5736 5737 5737 5738 5738 5738 5738 5738 5738 5739 5739 5739 5740 5740 5741 5741 5741 5741 5742 5742 5742 5742 5743 5743 5743 5744 5744 5743 5743 5743 5743 5742 5742
5729 5729 5730 5731 5732 5732 5732 5733 5733 5734 5735 5736 5736 5737 5737 5737 5737 5737 5737 5737 5738 5738 5739 5739 5739 5740 5740 5740 5740 5740 5740 5740 5741 5741 5741 5742 5742 5742 5741 5741 5741 5741
5726 5727 5728 5729 5730 5730 5730 5730 5731 5732 5732 5733 5734 5735 5735 5735 5735 5736 5736 5736 5736 5737 5737 5737 5738 5738 5738 5739 5739 5739 5739 5739 5739 5739 5739 5739 5739 5740 5740 5740 5740 5739
5724 5725 5726 5727 5727 5728 5728 5728 5729 5729 5729 5730 5731 5732 5733 5733 5733 5734 5734 5734 5735 5735 5735 5736 5736 5736 5737 5737 5737 5737 5737 5737 5738 5738 5737 5737 5737 5738 5738 5738 5738 5738
5722 5723 5723 5724 5724 5724 5725 5726 5726 5726 5726 5727 5727 5728 5729 5730 5730 5731 5731 5732 5732 5733 5733 5734 5734 5734 5734 5734 5735 5735 5735 5735 5736 5735 5736 5736 5736 5736 5736 5736 5736 5736
5720 5720 5721 5721 5721 5721 5722 5723 5724 5724 5724 5724 5723 5724 5725 5726 5727 5728 5728 5729 5729 5730 5731 5731 5731 5732 5732 5732 5733 5733 5733 5734 5734 5734 5734 5734 5734 5735 5735 5735 5735 5734
5718 5718 5718 5718 5718 5719 5719 5720 5721 5721 5721 5721 5721 5721 5722 5722 5724 5725 5725 5726 5727 5727 5727 5728 5729 5729 5729 5730 5730 5731 5731 5731 5732 5732 5732 5732 5733 5733 5733 5733 5733 5733
5715 5716 5716 5715 5715 5715 5716 5716 5717 5718 5719 5719 5719 5720 5720 5720 5721 5722 5722 5723 5723 5724 5724 5725 5725 5726 5727 5727 5728 5728 5729 5729 5730 5730 5730 5730 5730 5730 5730 5731 5731 5731
5712 5713 5713 5711 5711 5711 5712 5713 5714 5715 5715 5716 5716 5717 5718 5718 5718 5718 5719 5720 5720 5720 5721 5721 5722 5722 5723 5724 5724 5725 5725 5726 5726 5727 5727 5727 5727 5727 5726 5727 5727 5728
5709 5710 5709 5708 5707 5707 5708 5709 5710 5711 5712 5712 5713 5714 5714 5715 5716 5716 5716 5717 5717 5717 5717 5717 5717 5718 5719 5720 5720 5721 5721 5722 5722 5723 5723 5724 5724 5724 5724 5724 5724 5725
5706 5707 5707 5706 5705 5705 5706 5706 5707 5708 5708 5709 5710 5711 5711 5712 5713 5713 5713 5714 5714 5714 5713 5713 5714 5715 5716 5717 5717 5717 5718 5718 5718 5719 5719 5720 5721 5721 5721 5721 5721 5721
5702 5703 5703 5704 5703 5703 5704 5704 5704 5704 5705 5706 5708 5708 5707 5708 5709 5709 5709 5709 5710 5710 5710 5710 5711 5712 5713 5714 5714 5714 5714 5714 5714 5715 5715 5716 5716 5716 5717 5717 5717 5717
5697 5698 5699 5699 5699 5700 5700 5700 5700 5701 5701 5702 5704 5703 5702 5702 5703 5703 5703 5703 5704 5705 5706 5707 5708 5709 5710 5710 5710 5710 5710 5710 5710 5711 5711 5712 5711 5711 5712 5712 5712 5712
5693 5694 5695 5695 5695 5696 5696 5695 5696 5698 5699 5699 5700 5699 5699 5699 5698 5697 5698 5698 5699 5700 5701 5703 5704 5704 5705 5705 5705 5706 5706 5706 5705 5705 5706 5706 5706 5706 5706 5706 5706 5706
5688 5689 5690 5690 5691 5691 5692 5691 5692 5694 5695 5695 5695 5694 5695 5695 5693 5693 5694 5694 5695 5695 5696 5698 5699 5699 5699 5700 5700 5700 5700 5700 5700 5700 5700 5700 5700 5700 5700 5700 5699 5699
5683 5685 5685 5686 5685 5686 5686 5686 5687 5688 5689 5690 5690 5690 5689 5689 5688 5688 5690 5690 5690 5691 5691 5692 5693 5693 5693 5693 5693 5693 5693 5694 5694 5694 5694 5694 5693 5693 5693 5693 5692 5693
5679 5681 5681 5680 5679 5679 5680 5681 5681 5682 5683 5684 5685 5684 5684 5684 5683 5684 5685 5685 5685 5685 5685 5686 5686 5686 5687 5687 5687 5687 5687 5688 5688 5688 5688 5688 5688 5687 5687 5686 5686 5686
5673 5675 5675 5674 5673 5673 5674 5675 5675 5676 5677 5678 5679 5679 5678 5678 5678 5678 5678 5679 5679 5679 5680 5680 5680 5680 5681 5681 5681 5681 5681 5682 5682 5682 5682 5682 5681 5681 5681 5680 5680 5680
5667 5668 5669 5669 5669 5669 5669 5669 5670 5670 5670 5671 5672 5672 5673 5672 5672 5672 5672 5673 5673 5673 5674 5674 5674 5674 5675 5675 5675 5675 5675 5675 5675 5675 5675 5675 5675 5675 5675 5674 5674 5674
5660 5661 5662 5663 5663 5663 5664 5664 5664 5664 5664 5664 5665 5666 5666 5667 5667 5667 5667 5668 5668 5668 5669 5669 5669 5669 5668 5668 5668 5668 5669 5669 5669 5669 5669 5669 5668 5669 5668 5668 5668 5667
5654 5654 5655 5656 5656 5657 5658 5658 5658 5658 5658 5658 5658 5658 5659 5659 5660 5661 5661 5662 5662 5662 5663 5663 5662 5662 5662 5662 5661 5662 5662 5662 5662 5662 5662 5662 5662 5662 5662 5662 5662 5661
5647 5647 5648 5648 5649 5650 5651 5651 5651 5651 5652 5652 5652 5652 5652 5652 5653 5654 5654 5655 5655 5655 5655 5655 5655 5655 5655 5655 5655 5655 5656 5656 5656 5656 5656 5655 5655 5655 5655 5655 5654 5654
5639 5640 5641 5641 5642 5643 5644 5644 5644 5645 5645 5645 5645 5646 5646 5646 5646 5647 5647 5647 5647 5648 5648 5648 5648 5648 5648 5648 5648 5649 5649 5649 5650 5650 5649 5649 5649 5648 5647 5647 5647 5647
Wind_Speed
24 18 16 15 14 14 15 14 13 11 11 11 11 10 10 11 11 10 9 8 8 8 8 9 9 9 9 9 9 9 9 10 10 11 11 11 12 12 13 13 14 14
25 20 17 15 15 15 16 15 14 12 11 11 11 10 10 11 11 10 8 7 7 7 7 7 8 8 9 9 9 9 9 9 10 10 11 11 11 11 12 12 12 12
25 23 20 15 14 15 16 16 15 14 12 11 11 11 10 10 10 9 9 8 8 8 8 8 9 9 9 9 9 9 10 10 10 11 11 11 12 11 12 11 11 11
25 27 23 15 14 16 16 16 16 16 14 12 12 12 11 11 10 10 10 10 10 10 10 11 11 11 11 11 11 11 11 11 11 11 12 12 12 12 12 12 12 11
18 22 21 15 14 15 13 14 15 16 16 15 14 13 13 13 12 12 12 12 12 12 12 12 13 13 13 13 13 13 13 12 12 12 12 12 13 13 13 14 14 13
16 15 15 13 12 12 13 14 15 16 17 17 15 14 14 15 15 14 14 13 13 14 14 14 13 13 12 12 12 12 12 12 12 13 13 13 13 13 14 14 15 15
18 16 15 13 12 13 15 16 16 16 17 17 17 16 16 16 17 16 15 14 14 13 13 13 13 12 11 10 10 10 10 11 12 13 13 14 14 13 14 14 15 15
18 16 16 17 17 18 19 19 18 18 18 18 19 20 19 18 18 17 16 16 15 15 14 14 14 13 13 12 11 10 11 11 11 12 13 14 14 14 15 15 15 16
17 16 18 19 20 19 19 18 17 17 18 19 22 22 21 21 20 20 19 17 16 16 15 15 15 16 16 15 15 15 15 14 13 13 14 15 15 16 17 18 18 18
17 20 21 19 18 17 17 17 17 18 19 21 23 23 23 23 22 21 21 19 18 18 18 18 17 18 18 18 18 18 18 17 16 16 17 18 19 20 20 20 21 21
20 21 21 18 18 18 18 19 19 20 20 22 23 24 24 25 24 23 22 21 21 21 21 20 20 21 21 20 20 20 20 20 19 19 20 21 23 25 25 25 24 24
19 19 20 20 19 19 19 20 21 21 21 22 24 25 27 27 26 26 25 24 25 25 23 23 24 25 24 24 24 24 23 23 23 23 22 22 23 24 24 23 23 23
21 21 20 19 19 19 19 20 22 23 22 22 23 26 29 29 27 26 27 27 27 27 27 27 27 27 26 26 26 26 26 26 26 26 26 25 23 22 20 20 21 22
24 20 18 18 20 20 18 18 20 22 23 22 22 25 28 30 29 26 26 28 27 28 29 29 29 28 26 25 25 26 27 28 28 28 29 28 27 26 25 25 25 25
24 20 20 21 21 19 18 20 21 23 25 24 24 26 27 30 31 26 25 26 26 24 24 23 24 26 26 27 28 28 30 31 32 31 31 31 32 31 31 30 30 30
25 24 25 26 24 22 23 25 26 27 28 27 28 30 29 29 30 28 27 28 27 25 24 23 24 26 28 30 31 32 33 34 34 33 32 32 33 33 33 33 33 33
29 29 30 32 32 30 30 32 31 30 30 29 30 31 31 29 30 30 31 32 31 29 29 29 30 31 32 33 33 34 35 35 35 35 35 35 35 35 36 36 37 37
32 32 31 32 34 34 34 36 35 33 33 33 34 36 36 35 35 35 35 34 33 32 33 33 33 33 34 35 36 37 37 38 38 39 40 41 41 41 41 40 41 41
35 35 34 34 35 36 36 37 37 37 36 36 37 40 41 42 42 42 39 37 37 37 36 35 34 34 35 36 38 39 39 40 41 42 43 44 45 46 45 43 43 43
38 36 36 36 35 35 35 36 38 38 38 39 40 41 42 42 42 41 40 39 40 39 38 37 37 38 39 40 41 42 42 42 43 44 45 46 47 47 47 46 45 45
40 39 39 38 37 36 36 36 37 38 39 39 40 41 42 42 42 41 41 41 40 40 39 40 41 42 43 44 45 44 44 44 44 44 45 45 46 47 48 48 47 48
43 42 42 41 41 41 40 40 40 40 41 41 41 41 41 41 40 41 41 42 42 42 42 43 44 45 46 47 47 46 45 45 45 45 46 46 47 47 48 49 49 49
44 44 44 44 45 45 45 44 44 44 44 44 44 42 42 41 41 42 43 45 46 46 45 45 46 47 48 48 48 47 46 46 46 47 47 48 48 49 49 50 50 51
45 45 46 48 48 48 48 47 47 47 47 47 46 46 45 45 46 47 48 48 49 48 48 47 48 48 49 50 50 50 49 49 48 48 48 48 48 49 49 50 51 51
47 49 50 50 50 48 48 48 48 48 49 49 49 49 50 50 51 50 50 50 51 50 48 48 49 50 50 50 51 52 52 52 51 50 49 49 49 49 49 50 50 51
49 49 48 47 46 45 45 46 46 47 48 50 52 52 53 53 53 51 50 50 50 49 49 51 52 52 52 52 52 52 53 53 52 51 50 50 49 49 49 49 50 50
Wind_Direction
260 267 272 263 265 278 284 289 294 293 286 278 273 273 272 264 252 242 238 242 247 252 255 257 259 259 257 256 256 260 265 270 272 270 271 271 271 271 270 268 267 267
265 259 260 262 266 276 280 281 287 290 288 283 277 275 274 269 262 251 245 247 250 253 254 255 258 261 262 262 260 260 263 268 275 278 281 283 284 284 283 281 278 274
272 260 250 254 262 267 276 280 282 285 286 286 282 276 273 271 269 263 255 255 256 256 255 252 252 255 258 262 266 269 272 274 277 280 283 285 286 286 287 286 285 282
275 260 245 246 260 262 271 277 276 279 281 283 282 276 273 271 269 266 260 259 260 261 261 259 259 260 258 257 258 260 264 270 276 281 284 285 284 284 283 281 279 277
286 262 246 254 265 259 264 272 273 278 279 280 278 271 268 268 266 265 264 264 266 265 265 265 267 271 271 268 264 260 258 258 262 268 274 280 283 284 285 283 281 278
300 285 271 270 261 247 254 264 270 277 278 279 277 269 266 267 265 264 264 266 270 271 271 270 272 278 284 284 281 276 270 266 264 264 266 271 276 282 286 287 286 283
292 291 281 268 254 251 257 263 267 270 273 275 274 269 266 265 264 263 261 262 265 269 273 273 273 273 274 277 280 285 286 284 282 279 274 272 273 277 282 286 287 286
286 286 277 266 262 262 261 262 264 262 264 268 268 267 265 262 260 258 257 259 261 264 268 271 270 266 262 264 270 282 290 291 291 293 290 285 282 283 285 286 286 287
285 287 285 273 266 269 266 262 262 259 258 260 262 265 265 262 259 254 252 253 255 258 263 265 266 264 263 266 272 283 290 288 286 294 298 294 291 291 291 289 286 284
282 287 289 276 265 271 269 262 261 260 257 256 258 262 265 265 263 258 253 253 255 256 256 257 260 261 263 267 272 280 286 285 284 290 296 296 294 292 290 289 286 281
284 286 287 276 264 265 263 258 260 262 261 258 256 258 262 264 262 256 253 257 262 262 259 258 259 260 262 267 271 275 277 276 277 281 288 294 296 292 286 283 283 277
289 287 283 277 269 263 260 259 261 262 262 259 258 258 259 258 255 252 254 259 263 263 262 262 262 261 262 266 271 274 276 275 277 281 286 290 293 292 285 281 280 275
292 286 280 277 271 267 267 266 264 264 264 262 261 262 259 253 249 251 253 254 257 262 263 262 262 261 261 264 268 271 274 276 280 284 285 284 283 282 280 281 280 278
291 284 274 269 269 271 271 267 264 264 264 264 266 269 262 248 243 250 254 250 250 258 264 264 263 260 260 265 269 270 272 275 277 279 279 278 275 273 274 276 277 276
286 281 271 264 265 273 275 268 267 266 263 259 260 264 257 242 238 244 246 243 245 253 262 268 266 263 265 269 271 271 271 273 275 275 274 274 274 274 273 272 272 272
279 277 272 263 261 271 274 270 268 267 263 258 252 251 249 247 249 251 245 245 253 260 264 272 274 272 272 273 273 272 272 273 274 274 273 272 273 274 274 273 271 270
273 271 269 265 264 265 265 266 268 265 260 255 250 249 252 253 257 259 257 258 264 267 270 275 278 276 274 273 272 272 271 271 272 273 274 275 275 276 275 274 273 272
271 270 267 265 265 263 262 265 269 267 260 256 254 257 260 258 258 262 266 266 267 270 274 278 279 276 275 274 273 271 271 271 272 273 274 276 278 279 278 277 276 275
273 274 272 268 266 265 265 268 271 270 267 264 262 263 265 264 263 264 266 266 267 271 276 278 278 277 277 278 277 276 275 274 273 273 273 275 277 278 279 279 278 277
273 272 270 268 267 268 271 273 273 273 271 269 267 266 265 265 263 263 264 264 267 272 276 278 279 280 281 281 280 280 278 276 274 273 274 275 276 277 278 278 277 277
268 266 263 263 267 273 276 276 275 274 273 270 267 265 264 264 264 265 266 267 270 275 279 282 284 284 284 283 282 280 278 277 276 275 275 275 275 276 276 276 276 276
264 263 262 263 267 273 276 276 275 275 274 272 269 266 265 265 267 269 271 273 276 279 283 285 286 286 285 284 282 280 277 276 276 276 276 276 275 275 276 276 276 276
263 262 263 264 267 271 273 273 273 273 273 273 272 270 269 269 271 274 276 277 277 279 280 283 285 286 286 285 283 281 278 276 274 274 274 274 274 274 274 275 276 276
263 263 264 266 268 270 271 271 271 271 272 273 273 272 272 273 275 277 277 277 277 277 278 282 286 287 287 286 285 283 281 279 277 276 275 274 274 274 274 274 274 275
262 263 265 267 269 270 270 270 270 271 272 271 271 271 272 274 276 277 278 278 278 277 279 284 288 288 288 287 285 283 282 281 280 279 279 278 278 278 277 277 276 276
261 263 264 265 267 268 269 270 271 272 271 270 269 270 271 273 275 277 278 279 278 277 279 284 288 289 289 288 286 283 281 280 279 279 280 280 280 280 280 279 278 278